KN4CI-1 Weather Reports


Display with metric or nautical units.
time (UTC)temp
F
wind
direction
speed
MPH
gust
MPH
rain 1hr
in
rain 24hr
in
rain mn
in
humidity
%
barometer
mb
20260901014626 78 84 0.0 0.0 0.00 0.00 0.00 21 1018.6
20260901014126 78 84 0.0 0.0 0.00 0.00 0.00 21 1018.6
20260901012622 78 84 0.0 0.0 0.00 0.00 0.00 21 1018.6
20260901011616 79 84 0.0 0.0 0.00 0.00 0.00 20 1018.6
20260901010614 79 84 0.0 0.0 0.00 0.00 0.00 20 1018.6
20260901010107 79 84 0.0 0.0 0.00 0.00 0.00 19 1018.6
20260901005606 80 84 0.0 0.0 0.00 0.00 0.00 19 1018.6
20260901005104 80 84 0.0 0.0 0.00 0.00 0.00 19 1018.6
20260901004600 80 84 0.0 0.0 0.00 0.00 0.00 17 1018.6
20260901004100 81 84 0.0 0.0 0.00 0.00 0.00 17 1018.6
20260901003559 81 84 0.0 0.0 0.00 0.00 0.00 17 1017.6
20260901003054 81 84 0.0 0.0 0.00 0.00 0.00 17 1017.6
20260901002055 82 84 0.0 0.0 0.00 0.00 0.00 16 1017.6
20260901001049 82 84 0.0 0.0 0.00 0.00 0.00 14 1017.6
20260831235046 84 84 0.0 0.0 0.00 0.00 0.00 13 1017.6
20260831234538 84 84 0.0 0.0 0.00 0.00 0.00 13 1017.6
20260831234038 85 84 0.0 0.0 0.00 0.00 0.00 13 1018.6
20260831233536 85 84 0.0 0.0 0.00 0.00 0.00 13 1018.6
20260831233032 85 84 0.0 0.0 0.00 0.00 0.00 13 1018.6
20260831232532 86 84 0.0 0.0 0.00 0.00 0.00 13 1017.6
20260831232032 86 84 0.0 0.0 0.00 0.00 0.00 13 1017.6
20260831230529 87 84 0.0 0.0 0.00 0.00 0.00 13 1018.6
20260831230022 88 84 0.0 0.0 0.00 0.00 0.00 13 1018.6
20260831225523 89 84 0.0 0.0 0.00 0.00 0.00 12 1018.6
20260831224516 90 84 0.0 0.0 0.00 0.00 0.00 12 1018.6
20260831223517 91 84 0.0 0.0 0.00 0.00 0.00 12 1018.6
20260831223012 92 83 0.0 0.0 0.00 0.00 0.00 12 1018.6
20260831222013 93 84 0.0 0.0 0.00 0.00 0.00 11 1018.6
20260831221509 94 86 0.0 0.0 0.00 0.00 0.00 11 1018.6
20260831221008 94 108 0.0 0.0 0.00 0.00 0.00 11 1018.6
20260831220508 92 108 0.0 0.0 0.00 0.00 0.00 11 1018.6
20260831214455 93 85 0.0 0.0 0.00 0.00 0.00 11 1018.6
20260831213954 93 85 0.0 0.0 0.00 0.00 0.00 11 1018.6
20260831213454 92 85 0.0 0.0 0.00 0.00 0.00 11 1018.6
20260831213024 93 84 0.0 0.0 0.00 0.00 0.00 11 1018.6
20260831212948 93 84 0.0 0.0 0.00 0.00 0.00 11 1018.6
20260831212448 93 108 0.0 0.0 0.00 0.00 0.00 11 1018.6
20260831211948 93 113 0.0 0.0 0.00 0.00 0.00 11 1018.6
20260831211444 93 167 0.0 0.0 0.00 0.00 0.00 11 1018.6
20260831210443 93 98 0.0 0.0 0.00 0.00 0.00 11 1018.6
20260831205937 94 98 0.0 0.0 0.00 0.00 0.00 11 1018.6
20260831204430 94 167 0.0 0.0 0.00 0.00 0.00 11 1018.6
20260831203430 94 174 0.0 0.0 0.00 0.00 0.00 11 1018.6
20260831202427 94 87 0.0 0.0 0.00 0.00 0.00 11 1019.6
20260831201928 95 108 0.0 0.0 0.00 0.00 0.00 11 1019.6
20260831201423 95 124 0.0 0.0 0.00 0.00 0.00 11 1019.6
20260831200921 95 121 0.0 0.0 0.00 0.00 0.00 11 1019.6
20260831195914 95 125 0.0 0.0 0.00 0.00 0.00 11 1019.6
20260831194912 95 75 0.0 0.0 0.00 0.00 0.00 11 1019.6
20260831194403 96 90 0.0 0.0 0.00 0.00 0.00 11 1019.6
20260831193902 96 112 0.0 0.0 0.00 0.00 0.00 11 1019.6
20260831192357 95 14 0.0 0.0 0.00 0.00 0.00 11 1019.6
20260831191857 95 79 0.0 0.0 0.00 0.00 0.00 11 1019.6
20260831191353 95 94 0.0 0.0 0.00 0.00 0.00 11 1019.6
20260831190853 95 64 0.0 0.0 0.00 0.00 0.00 11 1019.6
20260831190353 95 109 0.0 0.0 0.00 0.00 0.00 11 1019.6
20260831185849 94 108 0.0 0.0 0.00 0.00 0.00 11 1019.6
20260831185349 94 53 0.0 0.0 0.00 0.00 0.00 11 1020.6
20260831184345 94 11 0.0 0.0 0.00 0.00 0.00 11 1020.6
20260831183346 93 112 0.0 0.0 0.00 0.00 0.00 11 1020.6
20260831182841 92 123 0.0 0.0 0.00 0.00 0.00 11 1020.6
20260831182342 91 110 0.0 0.0 0.00 0.00 0.00 12 1020.6
20260831181842 91 110 0.0 0.0 0.00 0.00 0.00 12 1020.6
20260831180840 93 343 0.0 0.0 0.00 0.00 0.00 11 1020.6
20260831180340 93 29 0.0 0.0 0.00 0.00 0.00 11 1020.6
20260831174832 92 24 0.0 0.0 0.00 0.00 0.00 11 1020.6
20260831174323 92 66 0.0 0.0 0.00 0.00 0.00 11 1020.6
20260831173823 92 144 0.0 0.0 0.00 0.00 0.00 12 1020.6
20260831172819 93 113 0.0 0.0 0.00 0.00 0.00 11 1020.6
20260831172319 92 161 0.0 0.0 0.00 0.00 0.00 11 1020.6
20260831171819 92 157 0.0 0.0 0.00 0.00 0.00 12 1020.6
20260831170815 91 201 0.0 0.0 0.00 0.00 0.00 12 1021.6
20260831161403 88 104 0.0 0.0 0.00 0.00 0.00 13 1021.6
20260831161300 88 104 0.0 0.0 0.00 0.00 0.00 13 1021.6
20260831160355 87 242 0.0 0.0 0.00 0.00 0.00 13 1021.6
20260831160300 87 242 0.0 0.0 0.00 0.00 0.00 13 1021.6
20260831155756 87 247 0.0 0.0 0.00 0.00 0.00 13 1021.6
20260831155257 87 232 0.0 0.0 0.00 0.00 0.00 13 1021.6
20260831154757 87 225 0.0 0.0 0.00 0.00 0.00 13 1021.6
20260831154252 86 159 0.0 0.0 0.00 0.00 0.00 13 1021.6
20260831153253 86 258 0.0 0.0 0.00 0.00 0.00 13 1021.6
20260831151750 85 254 0.0 0.0 0.00 0.00 0.00 16 1021.6
20260831150822 84 216 0.0 0.0 0.00 0.00 0.00 16 1021.6
20260831150748 84 216 0.0 0.0 0.00 0.00 0.00 16 1021.6
20260831145825 83 109 0.0 0.0 0.00 0.00 0.00 16 1021.6
20260831145746 83 109 0.0 0.0 0.00 0.00 0.00 16 1021.6
20260831144331 83 110 0.0 0.0 0.00 0.00 0.00 19 1021.6
20260831144229 83 110 0.0 0.0 0.00 0.00 0.00 19 1021.6
20260831143230 82 95 0.0 0.0 0.00 0.00 0.00 19 1021.6
20260831142228 81 247 0.0 0.0 0.00 0.00 0.00 21 1021.6
20260831141224 80 263 0.0 0.0 0.00 0.00 0.00 22 1021.6
20260831140724 80 176 0.0 0.0 0.00 0.00 0.00 24 1021.6
20260831135719 79 164 0.0 0.0 0.00 0.00 0.00 26 1021.6
20260831133205 77 162 0.0 0.0 0.00 0.00 0.00 30 1021.6
20260831131155 76 119 0.0 0.0 0.00 0.00 0.00 32 1021.6
20260831124648 74 96 0.0 0.0 0.00 0.00 0.00 33 1020.6
20260831123646 73 94 0.0 0.0 0.00 0.00 0.00 33 1020.6
20260831123146 72 94 0.0 0.0 0.00 0.00 0.00 33 1020.6
20260831122642 72 168 0.0 0.0 0.00 0.00 0.00 34 1020.6
20260831122141 72 167 0.0 0.0 0.00 0.00 0.00 34 1020.6
20260831121637 71 168 0.0 0.0 0.00 0.00 0.00 33 1020.6
20260831120633 71 167 0.0 0.0 0.00 0.00 0.00 33 1020.6
20260831115625 70 168 0.0 0.0 0.00 0.00 0.00 34 1020.6
20260831114624 70 168 0.0 0.0 0.00 0.00 0.00 34 1020.6
20260831114115 70 167 0.0 0.0 0.00 0.00 0.00 34 1020.6
20260831113615 70 167 0.0 0.0 0.00 0.00 0.00 33 1019.6
20260831113115 70 168 0.0 0.0 0.00 0.00 0.00 33 1019.6
20260831111611 70 167 0.0 0.0 0.00 0.00 0.00 33 1019.6
20260831110607 70 168 0.0 0.0 0.00 0.00 0.00 33 1019.6
20260831110107 70 167 0.0 0.0 0.00 0.00 0.00 33 1019.6
20260831105604 70 167 0.0 0.0 0.00 0.00 0.00 33 1019.6
20260831105104 70 168 0.0 0.0 0.00 0.00 0.00 33 1019.6
20260831104604 70 167 0.0 0.0 0.00 0.00 0.00 33 1019.6
20260831104101 70 167 0.0 0.0 0.00 0.00 0.00 33 1019.6
20260831102552 70 167 0.0 0.0 0.00 0.00 0.00 33 1019.6
20260831102051 70 167 0.0 0.0 0.00 0.00 0.00 33 1019.6
20260831101551 70 167 0.0 0.0 0.00 0.00 0.00 33 1019.6
20260831100547 70 168 0.0 0.0 0.00 0.00 0.00 33 1019.6
20260831100048 70 168 0.0 0.0 0.00 0.00 0.00 33 1019.6
20260831095543 70 167 0.0 0.0 0.00 0.00 0.00 33 1019.6
20260831095042 70 167 0.0 0.0 0.00 0.00 0.00 33 1019.6
20260831094543 70 167 0.0 0.0 0.00 0.00 0.00 33 1019.6
20260831093540 70 167 0.0 0.0 0.00 0.00 0.00 33 1019.6
20260831093041 70 168 0.0 0.0 0.00 0.00 0.00 33 1019.6
20260831092038 71 167 0.0 0.0 0.00 0.00 0.00 33 1019.6
20260831085530 70 167 0.0 0.0 0.00 0.00 0.00 32 1019.6
20260831085030 70 167 0.0 0.0 0.00 0.00 0.00 32 1019.6
20260831083523 71 168 0.0 0.0 0.00 0.00 0.00 32 1018.6
20260831082517 71 168 0.0 0.0 0.00 0.00 0.00 32 1018.6
20260831082016 71 168 0.0 0.0 0.00 0.00 0.00 32 1018.6
20260831080014 71 167 0.0 0.0 0.00 0.00 0.00 32 1018.6
20260831075511 71 168 0.0 0.0 0.00 0.00 0.00 32 1018.6
20260831074511 71 168 0.0 0.0 0.00 0.00 0.00 32 1018.6
20260831073506 71 168 0.0 0.0 0.00 0.00 0.00 32 1018.6
20260831072457 71 167 0.0 0.0 0.00 0.00 0.00 32 1018.6
20260831071957 71 167 0.0 0.0 0.00 0.00 0.00 32 1018.6
20260831070953 71 167 0.0 0.0 0.00 0.00 0.00 32 1018.6
20260831070453 71 167 0.0 0.0 0.00 0.00 0.00 32 1018.6
20260831064951 71 167 0.0 0.0 0.00 0.00 0.00 31 1018.6
20260831064451 72 167 0.0 0.0 0.00 0.00 0.00 31 1018.6
20260831063449 72 168 0.0 0.0 0.00 0.00 0.00 31 1018.6
20260831062949 72 168 0.0 0.0 0.00 0.00 0.00 31 1018.6
20260831061932 72 167 0.0 0.0 0.00 0.00 0.00 31 1018.6
20260831061432 72 167 0.0 0.0 0.00 0.00 0.00 31 1018.6
20260831060928 72 168 0.0 0.0 0.00 0.00 0.00 31 1019.6
20260831055928 72 167 0.0 0.0 0.00 0.00 0.00 31 1019.6
20260831055424 72 168 0.0 0.0 0.00 0.00 0.00 31 1019.6
20260831054424 72 168 0.0 0.0 0.00 0.00 0.00 31 1019.6
20260831053421 72 167 0.0 0.0 0.00 0.00 0.00 31 1019.6
20260831052921 72 168 0.0 0.0 0.00 0.00 0.00 31 1019.6
20260831052416 72 167 0.0 0.0 0.00 0.00 0.00 30 1019.6
20260831051917 72 167 0.0 0.0 0.00 0.00 0.00 30 1019.6
20260831051415 72 168 0.0 0.0 0.00 0.00 0.00 29 1019.6
20260831050412 73 168 0.0 0.0 0.00 0.00 0.00 29 1018.6
20260831045912 73 167 0.0 0.0 0.00 0.00 0.00 29 1018.6
20260831045405 73 167 0.0 0.0 0.00 0.00 0.00 29 1018.6
20260831044905 73 167 0.0 0.0 0.00 0.00 0.00 28 1018.6
20260831044405 73 167 0.0 0.0 0.00 0.00 0.00 28 1018.6
20260831043901 73 167 0.0 0.0 0.00 0.00 0.00 28 1018.6
20260831043401 73 168 0.0 0.0 0.00 0.00 0.00 28 1018.6
20260831042901 73 167 0.0 0.0 0.00 0.00 0.00 28 1018.6
20260831041359 73 167 0.0 0.0 0.00 0.00 0.00 28 1018.6
20260831040854 73 168 0.0 0.0 0.00 0.00 0.00 27 1019.6
20260831034846 74 168 0.0 0.0 0.00 0.00 0.00 27 1019.6
20260831030820 75 167 0.0 0.0 0.00 0.00 0.00 25 1019.6
20260831024816 75 168 0.0 0.0 0.00 0.00 0.00 25 1019.6
20260831024316 75 167 0.0 0.0 0.00 0.00 0.00 24 1019.6
20260831022805 76 167 0.0 0.0 0.00 0.00 0.00 24 1019.6
20260831022301 76 168 0.0 0.0 0.00 0.00 0.00 23 1019.6
20260831020754 76 167 0.0 0.0 0.00 0.00 0.00 22 1018.6
20260831015747 76 168 0.0 0.0 0.00 0.00 0.00 22 1018.6